DW8961 Weather Reports


time (UTC)temp
C
wind
direction
speed
KPH
gust
KPH
rain 1hr
cm
rain 24hr
cm
rain mn
cm
humidity
%
barometer
mb
20260507142518 10 248 6.4 12.9 0.00 0.00 0.00 81 1020.5
20260507141517 10 248 8.0 12.9 0.00 0.00 0.00 81 1020.4
20260507140517 10 248 6.4 11.3 0.00 0.00 0.00 81 1020.5
20260507135617 10 248 8.0 12.9 0.00 0.00 0.00 81 1020.3
20260507134517 10 248 4.8 9.7 0.00 0.00 0.00 81 1020.2
20260507133517 10 248 4.8 12.9 0.00 0.00 0.00 81 1020.2
20260507132517 10 270 4.8 11.3 0.00 0.00 0.00 82 1020.2
20260507131517 10 270 4.8 8.0 0.00 0.00 0.00 82 1020.2
20260507130517 10 270 3.2 8.0 0.00 0.00 0.00 81 1020.1
20260507125517 10 248 4.8 9.7 0.00 0.00 0.00 82 1020.2
20260507124516 10 270 4.8 8.0 0.00 0.00 0.00 82 1020.2
20260507123538 10 270 3.2 8.0 0.00 0.00 0.00 81 1020.2
20260507122517 10 248 4.8 9.7 0.00 0.00 0.00 81 1020.3
20260507121518 10 270 3.2 9.7 0.00 0.00 0.00 81 1020.4
20260507120517 10 270 1.6 4.8 0.00 0.00 0.00 82 1020.5
20260507115517 10 270 1.6 6.4 0.00 0.00 0.00 82 1020.6
20260507114517 10 0.0 4.8 0.00 0.00 0.00 81 1020.7
20260507113517 10 270 3.2 6.4 0.00 0.00 0.00 81 1020.7
20260507112537 10 270 3.2 6.4 0.00 0.00 0.00 81 1020.8
20260507111517 10 270 3.2 9.7 0.00 0.00 0.00 81 1020.7
20260507110517 10 248 3.2 8.0 0.00 0.00 0.00 80 1020.8
20260507105536 10 270 3.2 8.0 0.00 0.00 0.00 80 1020.8
20260507104517 10 248 4.8 8.0 0.00 0.00 0.00 80 1020.8
20260507103517 11 248 4.8 8.0 0.00 0.00 0.00 80 1020.9
20260507102517 11 248 3.2 9.7 0.00 0.00 0.00 80 1020.9
20260507101517 11 270 1.6 6.4 0.00 0.00 0.00 81 1020.9
20260507100517 11 270 3.2 8.0 0.00 0.00 0.00 80 1020.8
20260507095517 11 248 4.8 8.0 0.00 0.00 0.00 81 1020.9
20260507094516 11 248 3.2 8.0 0.00 0.00 0.00 81 1020.8
20260507093516 11 270 3.2 8.0 0.00 0.00 0.00 81 1020.8
20260507092537 11 270 4.8 6.4 0.00 0.00 0.00 82 1020.8
20260507091538 11 248 6.4 14.5 0.00 0.00 0.00 81 1020.7
20260507090538 11 248 8.0 12.9 0.00 0.00 0.00 82 1020.7
20260507085517 11 270 4.8 9.7 0.00 0.00 0.00 82 1020.7
20260507084517 11 270 6.4 11.3 0.00 0.00 0.00 82 1020.8
20260507083517 11 270 4.8 8.0 0.00 0.00 0.00 82 1020.7
20260507082517 11 248 4.8 11.3 0.00 0.00 0.00 82 1020.8
20260507081537 11 248 4.8 11.3 0.00 0.00 0.00 82 1020.7
20260507080538 11 270 4.8 8.0 0.00 0.00 0.00 82 1020.8
20260507075516 11 248 6.4 11.3 0.00 0.00 0.00 82 1020.8
20260507074517 11 248 6.4 14.5 0.00 0.00 0.00 82 1020.8
20260507073516 11 248 8.0 17.7 0.00 0.00 0.00 82 1020.8
20260507072538 12 248 8.0 16.1 0.00 0.00 0.00 83 1020.7
20260507071516 12 248 6.4 11.3 0.00 0.00 0.00 83 1020.6
20260507070517 12 270 4.8 9.7 0.00 0.00 0.00 83 1020.7
20260507065515 12 248 6.4 11.3 0.00 0.00 0.00 83 1020.7
20260507064516 12 248 8.0 12.9 0.00 0.00 0.00 83 1020.6
20260507063516 12 270 4.8 9.7 0.00 0.00 0.00 83 1020.6
20260507062517 12 248 8.0 14.5 0.00 0.00 0.00 82 1020.7
20260507061516 12 248 8.0 11.3 0.00 0.00 0.00 82 1020.7
20260507060516 12 248 6.4 12.9 0.00 0.00 0.00 81 1020.7
20260507055518 12 248 6.4 11.3 0.00 0.00 0.00 81 1020.7
20260507054517 12 248 9.7 14.5 0.00 0.00 0.00 82 1020.7
20260507053516 12 270 4.8 9.7 0.00 0.00 0.00 81 1020.7
20260507052517 12 293 1.6 6.4 0.00 0.00 0.00 81 1020.7
20260507051516 12 270 6.4 11.3 0.00 0.00 0.00 81 1020.7
20260507050517 12 270 4.8 9.7 0.00 0.00 0.00 81 1020.6
20260507045516 12 270 6.4 9.7 0.00 0.00 0.00 81 1020.7
20260507044517 12 270 4.8 9.7 0.00 0.00 0.00 81 1020.7
20260507043517 12 270 3.2 6.4 0.00 0.00 0.00 81 1020.7
20260507042517 12 270 3.2 8.0 0.00 0.00 0.00 80 1020.7
20260507041539 13 270 6.4 9.7 0.00 0.00 0.00 80 1020.7
20260507040517 13 270 1.6 6.4 0.00 0.00 0.00 80 1020.6
20260507035517 13 270 6.4 11.3 0.00 0.00 0.00 80 1020.5
20260507034517 13 293 3.2 8.0 0.00 0.00 0.00 80 1020.4
20260507033600 13 270 4.8 9.7 0.00 0.00 0.00 79 1020.3
20260507032517 13 270 4.8 8.0 0.00 0.00 0.00 80 1020.3
20260507031517 13 270 4.8 8.0 0.00 0.00 0.00 79 1020.1
20260507030515 13 270 1.6 6.4 0.00 0.00 0.00 80 1020.0
20260507025517 13 293 3.2 6.4 0.00 0.00 0.00 80 1020.0
20260507024535 13 270 4.8 11.3 0.00 0.00 0.00 79 1020.1
20260507023518 13 270 4.8 9.7 0.00 0.00 0.00 80 1020.0
20260507022515 13 270 4.8 8.0 0.00 0.00 0.00 80 1019.9
20260507021518 13 270 4.8 8.0 0.00 0.00 0.00 80 1019.9
20260507020518 13 293 1.6 6.4 0.00 0.00 0.00 80 1019.9
20260507015517 13 315 1.6 4.8 0.00 0.00 0.00 80 1019.9
20260507014518 13 0.0 4.8 0.00 0.00 0.00 80 1019.9
20260507013559 13 315 3.2 6.4 0.00 0.00 0.00 79 1019.9
20260507012517 13 338 4.8 8.0 0.00 0.00 0.00 79 1019.8
20260507011517 14 338 6.4 9.7 0.00 0.00 0.00 78 1019.9
20260507010518 14 338 4.8 8.0 0.00 0.00 0.00 78 1019.9
20260507005557 14 315 1.6 4.8 0.00 0.00 0.00 78 1019.9
20260507004518 14 315 4.8 6.4 0.00 0.00 0.00 77 1020.0
20260507003517 15 315 3.2 8.0 0.00 0.00 0.00 76 1020.1
20260507002517 15 270 3.2 9.7 0.00 0.00 0.00 77 1020.1
20260507001518 15 315 1.6 4.8 0.00 0.00 0.00 77 1020.0
20260507000517 15 315 3.2 6.4 0.00 0.00 0.00 77 1019.9
20260506235517 15 315 1.6 3.2 0.00 0.00 0.00 77 1020.0
20260506234519 14 315 3.2 6.4 0.00 0.00 0.00 75 1019.9
20260506233517 14 315 1.6 6.4 0.00 0.00 0.00 76 1020.0
20260506232537 14 0.0 1.6 0.00 0.00 0.00 76 1019.9
20260506231517 14 315 1.6 4.8 0.00 0.00 0.00 76 1020.1
20260506230517 14 315 1.6 4.8 0.00 0.00 0.00 76 1020.0
20260506225538 14 270 3.2 6.4 0.00 0.00 0.00 76 1020.0
20260506224517 14 315 1.6 4.8 0.00 0.00 0.00 76 1020.1
20260506223517 15 293 1.6 4.8 0.00 0.00 0.00 77 1020.2
20260506222518 15 293 1.6 6.4 0.00 0.00 0.00 77 1020.3
20260506221517 15 270 4.8 11.3 0.00 0.00 0.00 77 1020.4
20260506220517 14 270 4.8 9.7 0.00 0.00 0.00 77 1020.3
20260506215537 14 248 9.7 14.5 0.00 0.00 0.00 77 1020.4
20260506214537 14 248 6.4 12.9 0.00 0.00 0.00 78 1020.4
20260506213517 14 270 9.7 17.7 0.00 0.00 0.00 78 1020.5
20260506212516 14 270 8.0 16.1 0.00 0.00 0.00 78 1020.4
20260506211517 14 248 11.3 19.3 0.00 0.00 0.00 79 1020.4
20260506210517 14 270 9.7 14.5 0.00 0.00 0.00 79 1020.3
20260506205518 14 270 8.0 17.7 0.00 0.00 0.00 79 1020.4
20260506204517 14 248 9.7 17.7 0.00 0.00 0.00 80 1020.3
20260506203518 14 248 8.0 16.1 0.00 0.00 0.00 80 1020.2
20260506202518 13 248 6.4 11.3 0.00 0.00 0.00 81 1020.1
20260506201517 13 248 8.0 14.5 0.00 0.00 0.00 82 1020.2
20260506200517 13 248 8.0 12.9 0.00 0.00 0.00 82 1020.2
20260506195518 13 270 4.8 8.0 0.00 0.00 0.00 83 1020.2
20260506194517 13 248 8.0 14.5 0.00 0.00 0.00 82 1020.1
20260506193517 13 248 8.0 14.5 0.00 0.00 0.00 83 1020.0
20260506192518 13 248 6.4 12.9 0.00 0.00 0.00 83 1020.0
20260506191517 13 248 6.4 12.9 0.00 0.00 0.00 83 1020.0
20260506190620 13 248 4.8 11.3 0.00 0.00 0.00 83 1020.1
20260506185517 13 248 6.4 9.7 0.00 0.00 0.00 83 1020.1
20260506184518 13 270 4.8 8.0 0.00 0.00 0.00 84 1020.1
20260506183517 13 270 4.8 11.3 0.00 0.00 0.00 83 1019.9
20260506182517 13 270 4.8 9.7 0.00 0.00 0.00 84 1019.8
20260506181518 13 248 6.4 11.3 0.00 0.00 0.00 83 1019.8
20260506180538 13 270 6.4 11.3 0.00 0.00 0.00 84 1019.9
20260506175517 12 248 8.0 12.9 0.00 0.00 0.00 84 1019.8
20260506174517 12 270 6.4 11.3 0.00 0.00 0.00 85 1019.8
20260506173558 12 270 6.4 12.9 0.00 0.00 0.00 85 1020.0
20260506172537 12 270 6.4 9.7 0.00 0.00 0.00 85 1019.8
20260506171537 12 270 6.4 11.3 0.00 0.00 0.00 85 1019.7
20260506170537 12 270 4.8 12.9 0.00 0.00 0.00 85 1019.8
20260506165518 12 248 4.8 8.0 0.00 0.00 0.00 85 1019.6
20260506164537 12 270 6.4 11.3 0.00 0.00 0.00 85 1019.4
20260506163517 12 248 3.2 11.3 0.00 0.00 0.00 86 1019.4
20260506162518 12 248 6.4 11.3 0.00 0.00 0.00 85 1019.3
20260506161517 12 248 6.4 11.3 0.00 0.00 0.00 86 1019.4
20260506160517 12 270 6.4 11.3 0.00 0.00 0.00 86 1019.6
20260506155517 12 270 8.0 12.9 0.00 0.00 0.00 86 1019.6
20260506154536 12 248 8.0 14.5 0.00 0.00 0.00 87 1019.4
20260506153518 11 248 6.4 9.7 0.00 0.00 0.00 87 1019.3
20260506152537 11 248 8.0 11.3 0.00 0.00 0.00 87 1019.4
20260506151539 11 248 9.7 16.1 0.00 0.00 0.00 88 1019.5
20260506150557 11 270 8.0 12.9 0.00 0.00 0.00 88 1019.6
20260506145517 11 248 9.7 14.5 0.00 0.00 0.00 88 1019.4
20260506144517 11 248 8.0 12.9 0.00 0.00 0.00 88 1019.1
20260506143517 11 248 4.8 12.9 0.00 0.00 0.00 88 1019.0